Regional Weather Roundup
Issued by NWS Charleston, WV

Home | Current Version | Previous Version | Graphics & Text | Print | Product List | Glossary On
Versions: 1 2 3 4 5 6 7 8 9 10 11 12 13 14 15 16 17 18 19 20 21 22 23 24 25 26 27 28 29 30 31 32 33 34 35 36 37 38 39 40 41 42 43 44 45 46 47 48 49 50
586
ASUS41 KRLX 202210
RWRRLX
West Virginia Regional Weather Roundup
National Weather Service Charleston WV
500 PM EST TUE FEB 20 2018

Note: "fair" indicates few or no clouds below 12,000 feet with no
significant weather and/or obstructions to visibility.

WVZ003-202300-
Northern Panhandle of West Virginia

CITY           SKY/WX    TMP DP  RH WIND       PRES   REMARKS
WHEELING         N/A     75  51  43 SW10      30.17R
$$

WVZ009-202300-
Northwest West Virginia

CITY           SKY/WX    TMP DP  RH WIND       PRES   REMARKS
PARKERSBURG      N/A     77  50  38 SW9       30.20R
$$

WVZ006-202300-
Western West Virginia

CITY           SKY/WX    TMP DP  RH WIND       PRES   REMARKS
HUNTINGTON       N/A     79  51  37 S13       30.18R
$$

WVZ015-202300-
West Central West Virginia

CITY           SKY/WX    TMP DP  RH WIND       PRES   REMARKS
CHARLESTON       N/A     79  49  34 SW10      30.19R
$$

WVZ022-031-202300-
North Central West Virginia

CITY           SKY/WX    TMP DP  RH WIND       PRES   REMARKS
CLARKSBURG       N/A     76  51  41 SW9       30.20R
MORGANTOWN       N/A     77  48  35 S6        30.20R
$$

WVZ025-035-042-045-202300-
Southern West Virginia

CITY           SKY/WX    TMP DP  RH WIND       PRES   REMARKS
BECKLEY          N/A     75  45  34 SW5       30.28S
LOGAN            N/A     77  48  36 VRB3G12   30.24R
BLUEFIELD        N/A     71  49  45 S7        30.32S
LEWISBURG        N/A     72  51  48 S7        30.31R
$$

WVZ047-202300-
Northern Mountains of West Virginia

CITY           SKY/WX    TMP DP  RH WIND       PRES   REMARKS
ELKINS           N/A     75  47  36 S8G16     30.25R
$$

WVZ052-202300-
Eastern Panhandle of West Virginia

CITY           SKY/WX    TMP DP  RH WIND       PRES   REMARKS
MARTINSBURG      N/A     76  55  48 S9        30.21R
PETERSBURG       N/A     76  51  40 S12       30.22S
$$




USA.gov is the U.S. government's official web portal to all federal, state and local government web resources and services.